• In Czech Republic
  • List of Countries
  • For 7 days
  • Water Temperature
  • Satellite Maps
  • Weather Map
  • Weather Widgets
  • user-avatar
    Login

    Hourly Weather Wokingham

    Today, 22 October, Monday

    Time Temperature Precipitation Wind Pressure Humidity
    00:00 +10°C° 0 mm 6 mps 767 mmHg 74%
    01:00 +10°C° 0 mm 6 mps 767 mmHg 73%
    02:00 +9°C° 0 mm 6 mps 768 mmHg 73%
    03:00 +8°C° 0 mm 6 mps 768 mmHg 73%
    04:00 +8°C° 0 mm 5 mps 769 mmHg 74%
    05:00 +7°C° 0 mm 5 mps 769 mmHg 75%
    06:00 +6°C° 0 mm 5 mps 770 mmHg 75%
    07:00 +7°C° 0 mm 5 mps 770 mmHg 72%
    08:00 +8°C° 0 mm 5 mps 771 mmHg 68%
    09:00 +8°C° 0 mm 6 mps 771 mmHg 65%
    10:00 +9°C° 0 mm 5 mps 771 mmHg 61%
    11:00 +10°C° 0 mm 5 mps 772 mmHg 57%
    12:00 +12°C° 0 mm 5 mps 772 mmHg 52%
    13:00 +12°C° 0 mm 5 mps 772 mmHg 52%
    14:00 +12°C° 0 mm 4 mps 772 mmHg 52%
    15:00 +12°C° 0 mm 4 mps 772 mmHg 52%
    16:00 +11°C° 0 mm 3 mps 772 mmHg 57%
    17:00 +9°C° 0 mm 3 mps 772 mmHg 62%
    18:00 +8°C° 0 mm 2 mps 772 mmHg 66%
    19:00 +8°C° 0 mm 2 mps 772 mmHg 69%
    20:00 +8°C° 0 mm 2 mps 772 mmHg 72%
    21:00 +7°C° 0 mm 2 mps 772 mmHg 74%
    22:00 +7°C° 0 mm 2 mps 772 mmHg 77%
    23:00 +7°C° 0 mm 2 mps 772 mmHg 80%

    Tomorrow, 23 October, Tuesday

    Time Temperature Precipitation Wind Pressure Humidity
    00:00 +7°C° 0 mm 2 mps 771 mmHg 83%
    01:00 +7°C° 0 mm 3 mps 771 mmHg 84%
    02:00 +7°C° 0 mm 3 mps 771 mmHg 85%
    03:00 +5°C° 0 mm 3 mps 770 mmHg 85%
    04:00 +5°C° 0 mm 3 mps 770 mmHg 87%
    05:00 +5°C° 0 mm 3 mps 770 mmHg 88%
    06:00 +5°C° 0 mm 3 mps 769 mmHg 90%
    07:00 +6°C° 0 mm 4 mps 769 mmHg 86%
    08:00 +8°C° 0 mm 4 mps 769 mmHg 82%
    09:00 +10°C° 0 mm 4 mps 769 mmHg 77%
    10:00 +10°C° 0 mm 5 mps 769 mmHg 72%
    11:00 +13°C° 0 mm 5 mps 768 mmHg 66%
    12:00 +14°C° 0 mm 5 mps 768 mmHg 60%
    13:00 +14°C° 0 mm 5 mps 768 mmHg 60%
    14:00 +15°C° 0 mm 5 mps 767 mmHg 59%
    15:00 +15°C° 0 mm 5 mps 767 mmHg 59%
    16:00 +14°C° 0 mm 5 mps 767 mmHg 64%
    17:00 +12°C° 0 mm 5 mps 767 mmHg 69%
    18:00 +11°C° 0 mm 4 mps 767 mmHg 74%
    19:00 +11°C° 0 mm 4 mps 767 mmHg 75%
    20:00 +10°C° 0 mm 4 mps 767 mmHg 76%
    21:00 +10°C° 0 mm 4 mps 767 mmHg 77%
    22:00 +10°C° 0 mm 4 mps 767 mmHg 78%
    23:00 +8°C° 0 mm 4 mps 767 mmHg 80%

    Day after tomorrow, 24 October, Wednesday

    Time Temperature Precipitation Wind Pressure Humidity
    00:00 +8°C° 0 mm 4 mps 767 mmHg 81%
    01:00 +9°C° 0 mm 3 mps 767 mmHg 84%
    02:00 +9°C° 0 mm 3 mps 767 mmHg 86%
    03:00 +9°C° 0 mm 3 mps 766 mmHg 88%
    04:00 +9°C° 0 mm 3 mps 766 mmHg 90%
    05:00 +9°C° 0 mm 3 mps 766 mmHg 91%
    06:00 +8°C° 0 mm 3 mps 766 mmHg 93%
    07:00 +9°C° 0 mm 3 mps 767 mmHg 90%
    08:00 +10°C° 0 mm 3 mps 767 mmHg 87%
    09:00 +11°C° 0 mm 3 mps 767 mmHg 84%
    10:00 +12°C° 0 mm 3 mps 767 mmHg 79%
    11:00 +13°C° 0 mm 3 mps 767 mmHg 75%
    12:00 +16°C° 0 mm 3 mps 767 mmHg 70%
    13:00 +16°C° 0 mm 2 mps 766 mmHg 70%
    14:00 +16°C° 0 mm 2 mps 766 mmHg 70%
    15:00 +16°C° 0 mm 2 mps 765 mmHg 70%
    16:00 +15°C° 0 mm 2 mps 765 mmHg 76%
    17:00 +13°C° 0 mm 2 mps 765 mmHg 82%
    18:00 +12°C° 0 mm 2 mps 765 mmHg 88%
    19:00 +10°C° 0 mm 2 mps 765 mmHg 89%
    20:00 +10°C° 0 mm 2 mps 765 mmHg 90%
    21:00 +9°C° 0 mm 2 mps 765 mmHg 91%
    22:00 +9°C° 0 mm 2 mps 764 mmHg 91%
    23:00 +8°C° 0 mm 2 mps 764 mmHg 91%

    25 October, Thursday

    Time Temperature Precipitation Wind Pressure Humidity
    00:00 +8°C° 0 mm 2 mps 764 mmHg 91%
    01:00 +7°C° 0 mm 2 mps 763 mmHg 92%
    02:00 +7°C° 0 mm 2 mps 763 mmHg 93%
    03:00 +7°C° 0 mm 2 mps 763 mmHg 93%
    04:00 +6°C° 0 mm 2 mps 762 mmHg 93%
    05:00 +6°C° 0 mm 2 mps 762 mmHg 94%
    06:00 +6°C° 0 mm 2 mps 762 mmHg 94%
    07:00 +7°C° 0 mm 2 mps 761 mmHg 90%
    08:00 +8°C° 0 mm 2 mps 761 mmHg 86%
    09:00 +8°C° 0 mm 2 mps 761 mmHg 83%
    10:00 +10°C° 0 mm 2 mps 761 mmHg 76%
    11:00 +12°C° 0 mm 2 mps 760 mmHg 69%
    12:00 +14°C° 0 mm 2 mps 760 mmHg 62%
    13:00 +14°C° 0 mm 2 mps 759 mmHg 60%
    14:00 +14°C° 0 mm 2 mps 758 mmHg 59%
    15:00 +14°C° 0 mm 2 mps 758 mmHg 58%
    16:00 +13°C° 0 mm 2 mps 757 mmHg 64%
    17:00 +12°C° 0 mm 2 mps 757 mmHg 69%
    18:00 +9°C° 0 mm 2 mps 757 mmHg 75%
    19:00 +9°C° 0 mm 2 mps 756 mmHg 78%
    20:00 +9°C° 0 mm 2 mps 756 mmHg 80%
    21:00 +9°C° 0 mm 2 mps 756 mmHg 83%
    22:00 +8°C° 0 mm 3 mps 756 mmHg 85%
    23:00 +8°C° 0 mm 3 mps 755 mmHg 87%

    26 October, Friday

    Time Temperature Precipitation Wind Pressure Humidity
    00:00 +7°C° 0 mm 3 mps 755 mmHg 90%
    01:00 +7°C° 0 mm 3 mps 754 mmHg 90%
    02:00 +7°C° 0 mm 3 mps 754 mmHg 91%
    03:00 +7°C° 0 mm 3 mps 754 mmHg 91%
    04:00 +6°C° 0 mm 4 mps 754 mmHg 89%
    05:00 +5°C° 0 mm 4 mps 754 mmHg 88%
    06:00 +5°C° 0 mm 4 mps 754 mmHg 86%
    07:00 +6°C° 0 mm 4 mps 754 mmHg 80%
    08:00 +6°C° 0 mm 5 mps 754 mmHg 74%
    09:00 +7°C° 0 mm 5 mps 754 mmHg 68%
    10:00 +7°C° 0 mm 5 mps 754 mmHg 64%
    11:00 +8°C° 0 mm 5 mps 754 mmHg 60%
    12:00 +9°C° 0 mm 5 mps 754 mmHg 56%
    13:00 +9°C° 0.1 mm 5 mps 753 mmHg 56%
    14:00 +9°C° 0.1 mm 5 mps 753 mmHg 57%
    15:00 +9°C° 0.1 mm 5 mps 752 mmHg 58%
    16:00 +8°C° 0.2 mm 4 mps 752 mmHg 64%
    17:00 +7°C° 0.2 mm 4 mps 752 mmHg 69%
    18:00 +6°C° 0.2 mm 4 mps 752 mmHg 75%
    19:00 +6°C° 0.2 mm 4 mps 751 mmHg 76%
    20:00 +5°C° 0.2 mm 4 mps 751 mmHg 78%
    21:00 +5°C° 0.2 mm 4 mps 751 mmHg 79%
    22:00 +5°C° 0.2 mm 4 mps 751 mmHg 79%
    23:00 +5°C° 0.2 mm 4 mps 750 mmHg 79%

    27 October, Saturday

    Time Temperature Precipitation Wind Pressure Humidity
    00:00 +4°C° 0.2 mm 4 mps 750 mmHg 78%
    01:00 +4°C° 0 mm 4 mps 750 mmHg 76%
    02:00 +3°C° 0 mm 4 mps 750 mmHg 73%
    03:00 +1°C° 0 mm 4 mps 750 mmHg 71%
    04:00 +1°C° 0 mm 5 mps 751 mmHg 72%
    05:00 +1°C° 0 mm 5 mps 751 mmHg 73%
    06:00 0°C° 0 mm 5 mps 751 mmHg 75%
    07:00 +1°C° 0.1 mm 6 mps 751 mmHg 74%
    08:00 +2°C° 0.1 mm 7 mps 751 mmHg 73%
    09:00 +2°C° 0.1 mm 8 mps 751 mmHg 72%
    10:00 +4°C° 0.1 mm 8 mps 751 mmHg 69%
    11:00 +5°C° 0.1 mm 9 mps 751 mmHg 66%
    12:00 +6°C° 0.1 mm 9 mps 751 mmHg 63%
    13:00 +6°C° 0.1 mm 9 mps 751 mmHg 63%
    14:00 +6°C° 0.1 mm 9 mps 751 mmHg 62%
    15:00 +6°C° 0.1 mm 9 mps 751 mmHg 61%
    16:00 +5°C° 0 mm 9 mps 752 mmHg 63%
    17:00 +5°C° 0 mm 9 mps 752 mmHg 65%
    18:00 +3°C° 0 mm 9 mps 752 mmHg 66%
    19:00 +3°C° 0 mm 9 mps 753 mmHg 66%
    20:00 +3°C° 0 mm 9 mps 753 mmHg 66%
    21:00 +3°C° 0 mm 9 mps 753 mmHg 66%
    22:00 +2°C° 0 mm 9 mps 754 mmHg 66%
    23:00 +2°C° 0 mm 9 mps 754 mmHg 66%

    28 October, Sunday

    Time Temperature Precipitation Wind Pressure Humidity
    00:00 +2°C° 0 mm 9 mps 754 mmHg 67%
    01:00 +1°C° 0 mm 8 mps 754 mmHg 69%
    02:00 +1°C° 0 mm 8 mps 754 mmHg 71%
    03:00 0°C° 0 mm 7 mps 754 mmHg 73%
    04:00 +2°C° 0 mm 7 mps 755 mmHg 73%
    05:00 +2°C° 0 mm 7 mps 755 mmHg 74%
    06:00 +2°C° 0 mm 6 mps 755 mmHg 74%
    07:00 +3°C° 0 mm 7 mps 755 mmHg 70%
    08:00 +4°C° 0 mm 7 mps 756 mmHg 67%
    09:00 +5°C° 0 mm 8 mps 756 mmHg 63%
    10:00 +6°C° 0.1 mm 8 mps 757 mmHg 61%
    11:00 +6°C° 0.1 mm 8 mps 757 mmHg 60%
    12:00 +7°C° 0.1 mm 8 mps 757 mmHg 58%
    13:00 +7°C° 0.1 mm 8 mps 757 mmHg 58%
    14:00 +8°C° 0.1 mm 7 mps 757 mmHg 58%
    15:00 +6°C° 0.1 mm 7 mps 758 mmHg 58%
    16:00 +5°C° 0 mm 6 mps 758 mmHg 62%
    17:00 +4°C° 0 mm 6 mps 758 mmHg 65%
    18:00 +3°C° 0 mm 5 mps 759 mmHg 69%
    19:00 +4°C° 0 mm 4 mps 759 mmHg 71%
    20:00 +3°C° 0 mm 4 mps 759 mmHg 73%
    21:00 +3°C° 0 mm 4 mps 759 mmHg 76%
    22:00 +1°C° 0 mm 4 mps 759 mmHg 78%
    23:00 +2°C° 0 mm 3 mps 759 mmHg 80%
    Show more